SB KEPS @ AMSAT $ORB12313.O Orbital Elements 12313.OSCAR
HR AMSAT ORBITAL ELEMENTS FOR OSCAR SATELLITES FROM WA5QGD FORT WORTH,TX November 8, 2012 BID: ORB12313.O TO ALL RADIO AMATEURS BT
Satellite: AO-07 Catalog number: 07530 Epoch time: 12311.59806285 Element set: 524 Inclination: 101.4134 deg RA of node: 303.3643 deg Eccentricity: 0.0012195 Arg of perigee: 004.3615 deg Mean anomaly: 355.7557 deg Mean motion: 12.53592563 rev/day Decay rate: -2.7e-07 rev/day^2 Epoch rev: 73789 Checksum: 290
Satellite: FO-29 Catalog number: 24278 Epoch time: 12311.24315477 Element set: 975 Inclination: 098.5856 deg RA of node: 033.3163 deg Eccentricity: 0.0351021 Arg of perigee: 021.7125 deg Mean anomaly: 339.8484 deg Mean motion: 13.52991843 rev/day Decay rate: 2.9e-07 rev/day^2 Epoch rev: 80116 Checksum: 308
Satellite: SO-33 Catalog number: 25509 Epoch time: 12312.22210299 Element set: 361 Inclination: 031.4330 deg RA of node: 244.1750 deg Eccentricity: 0.0351558 Arg of perigee: 014.9933 deg Mean anomaly: 346.0827 deg Mean motion: 14.28884852 rev/day Decay rate: 7.52e-06 rev/day^2 Epoch rev: 73312 Checksum: 286
Satellite: RS-22 Catalog number: 27939 Epoch time: 12312.44682914 Element set: 882 Inclination: 097.8006 deg RA of node: 145.8637 deg Eccentricity: 0.0013422 Arg of perigee: 166.5724 deg Mean anomaly: 193.5862 deg Mean motion: 14.64204570 rev/day Decay rate: 3.52e-06 rev/day^2 Epoch rev: 48684 Checksum: 323
Satellite: VO-52 Catalog number: 28650 Epoch time: 12311.13854706 Element set: 254 Inclination: 097.5843 deg RA of node: 335.0861 deg Eccentricity: 0.0025214 Arg of perigee: 296.6587 deg Mean anomaly: 063.2020 deg Mean motion: 14.83332291 rev/day Decay rate: 6.45e-06 rev/day^2 Epoch rev: 40601 Checksum: 285
Satellite: HO-68 Catalog number: 36122 Epoch time: 12312.10921686 Element set: 985 Inclination: 100.3428 deg RA of node: 008.4562 deg Eccentricity: 0.0007787 Arg of perigee: 140.5127 deg Mean anomaly: 219.6564 deg Mean motion: 13.16299705 rev/day Decay rate: -4.4e-07 rev/day^2 Epoch rev: 13919 Checksum: 303
/EX SB KEPS @ AMSAT $ORB12313.D Orbital Elements 12313.MICROS
HR AMSAT ORBITAL ELEMENTS FOR THE MICROSATS FROM WA5QGD FORT WORTH,TX November 8, 2012 BID: ORB12313.D TO ALL RADIO AMATEURS BT
Satellite: UO-11 Catalog number: 14781 Epoch time: 12311.58797227 Element set: 19 Inclination: 097.9357 deg RA of node: 009.7347 deg Eccentricity: 0.0007501 Arg of perigee: 292.7253 deg Mean anomaly: 067.3166 deg Mean motion: 14.80636181 rev/day Decay rate: 7.07e-06 rev/day^2 Epoch rev: 54099 Checksum: 319
Satellite: AO-16 Catalog number: 20439 Epoch time: 12311.82915981 Element set: 598 Inclination: 098.4442 deg RA of node: 251.3057 deg Eccentricity: 0.0011836 Arg of perigee: 095.3658 deg Mean anomaly: 264.8878 deg Mean motion: 14.32105461 rev/day Decay rate: 9.9e-07 rev/day^2 Epoch rev: 19041 Checksum: 321
Satellite: LO-19 Catalog number: 20442 Epoch time: 12312.38951331 Element set: 529 Inclination: 098.4126 deg RA of node: 254.3676 deg Eccentricity: 0.0012870 Arg of perigee: 087.2835 deg Mean anomaly: 272.9821 deg Mean motion: 14.32320656 rev/day Decay rate: 3.9e-07 rev/day^2 Epoch rev: 19068 Checksum: 304
Satellite: AO-27 Catalog number: 22825 Epoch time: 12311.89641613 Element set: 237 Inclination: 098.5897 deg RA of node: 252.5886 deg Eccentricity: 0.0007719 Arg of perigee: 217.5520 deg Mean anomaly: 142.5120 deg Mean motion: 14.29504768 rev/day Decay rate: 1.4e-07 rev/day^2 Epoch rev: 99686 Checksum: 329
Satellite: IO-26 Catalog number: 22826 Epoch time: 12310.89008098 Element set: 989 Inclination: 098.5835 deg RA of node: 251.9302 deg Eccentricity: 0.0008268 Arg of perigee: 213.7633 deg Mean anomaly: 146.3021 deg Mean motion: 14.29782905 rev/day Decay rate: 1.24e-06 rev/day^2 Epoch rev: 99685 Checksum: 330
Satellite: GO-32 Catalog number: 25397 Epoch time: 12310.98154140 Element set: 915 Inclination: 098.3828 deg RA of node: 282.8444 deg Eccentricity: 0.0000773 Arg of perigee: 182.1991 deg Mean anomaly: 177.9206 deg Mean motion: 14.23303870 rev/day Decay rate: 2.8e-07 rev/day^2 Epoch rev: 74419 Checksum: 312
Satellite: NO-44 Catalog number: 26931 Epoch time: 12311.80790469 Element set: 178 Inclination: 067.0508 deg RA of node: 112.7454 deg Eccentricity: 0.0005197 Arg of perigee: 253.7492 deg Mean anomaly: 106.3042 deg Mean motion: 14.29852937 rev/day Decay rate: 2.00e-06 rev/day^2 Epoch rev: 57963 Checksum: 308
Satellite: SO-50 Catalog number: 27607 Epoch time: 12312.20049998 Element set: 908 Inclination: 064.5579 deg RA of node: 219.7928 deg Eccentricity: 0.0072692 Arg of perigee: 219.4506 deg Mean anomaly: 140.1297 deg Mean motion: 14.72616730 rev/day Decay rate: 4.04e-06 rev/day^2 Epoch rev: 53102 Checksum: 311
Satellite: CO-55 Catalog number: 27844 Epoch time: 12311.07860621 Element set: 501 Inclination: 098.7030 deg RA of node: 317.4058 deg Eccentricity: 0.0009628 Arg of perigee: 169.1171 deg Mean anomaly: 191.0209 deg Mean motion: 14.21105629 rev/day Decay rate: 2.31e-06 rev/day^2 Epoch rev: 48504 Checksum: 275
Satellite: CO-57 Catalog number: 27848 Epoch time: 12311.53004029 Element set: 450 Inclination: 098.7120 deg RA of node: 317.2513 deg Eccentricity: 0.0009534 Arg of perigee: 172.7026 deg Mean anomaly: 187.4279 deg Mean motion: 14.20846993 rev/day Decay rate: 2.05e-06 rev/day^2 Epoch rev: 48504 Checksum: 298
Satellite: AO-51 Catalog number: 28375 Epoch time: 12310.94119812 Element set: 406 Inclination: 098.1670 deg RA of node: 269.7714 deg Eccentricity: 0.0083776 Arg of perigee: 332.4802 deg Mean anomaly: 027.1950 deg Mean motion: 14.41024778 rev/day Decay rate: 4.39e-06 rev/day^2 Epoch rev: 43918 Checksum: 316
Satellite: CP3 Catalog number: 31129 Epoch time: 12311.54460767 Element set: 306 Inclination: 097.8860 deg RA of node: 310.9791 deg Eccentricity: 0.0102021 Arg of perigee: 040.6060 deg Mean anomaly: 320.2657 deg Mean motion: 14.53299441 rev/day Decay rate: 6.69e-06 rev/day^2 Epoch rev: 29465 Checksum: 288
Satellite: CO-65 Catalog number: 32785 Epoch time: 12311.73131007 Element set: 461 Inclination: 097.7807 deg RA of node: 009.2996 deg Eccentricity: 0.0013399 Arg of perigee: 319.9700 deg Mean anomaly: 040.0529 deg Mean motion: 14.83347041 rev/day Decay rate: 1.042e-05 rev/day^2 Epoch rev: 24489 Checksum: 302
Satellite: PRISM Catalog number: 33493 Epoch time: 12312.04616328 Element set: 232 Inclination: 098.1896 deg RA of node: 096.2633 deg Eccentricity: 0.0018335 Arg of perigee: 191.3014 deg Mean anomaly: 168.7772 deg Mean motion: 14.84711375 rev/day Decay rate: 2.822e-05 rev/day^2 Epoch rev: 20494 Checksum: 297
Satellite: SOHLA-1 Catalog number: 33496 Epoch time: 12311.90841748 Element set: 879 Inclination: 098.1172 deg RA of node: 062.8101 deg Eccentricity: 0.0005825 Arg of perigee: 314.5518 deg Mean anomaly: 045.5210 deg Mean motion: 14.70102180 rev/day Decay rate: 3.07e-06 rev/day^2 Epoch rev: 20321 Checksum: 261
Satellite: SO-67 Catalog number: 35870 Epoch time: 12312.21131128 Element set: 488 Inclination: 097.2172 deg RA of node: 342.9138 deg Eccentricity: 0.0003291 Arg of perigee: 053.5709 deg Mean anomaly: 013.7662 deg Mean motion: 15.25071394 rev/day Decay rate: 3.825e-05 rev/day^2 Epoch rev: 17440 Checksum: 291
Satellite: TISAT-1 Catalog number: 36799 Epoch time: 12312.39156409 Element set: 507 Inclination: 098.0524 deg RA of node: 029.7316 deg Eccentricity: 0.0015948 Arg of perigee: 070.4722 deg Mean anomaly: 289.8210 deg Mean motion: 14.82495668 rev/day Decay rate: 1.731e-05 rev/day^2 Epoch rev: 12570 Checksum: 317
Satellite: STUDSAT Catalog number: 36801 Epoch time: 12311.24887722 Element set: 513 Inclination: 098.0668 deg RA of node: 030.0281 deg Eccentricity: 0.0012965 Arg of perigee: 060.4307 deg Mean anomaly: 299.8181 deg Mean motion: 14.85829750 rev/day Decay rate: 4.727e-05 rev/day^2 Epoch rev: 12560 Checksum: 298
Satellite: FO-69 Catalog number: 37227 Epoch time: 12313.28533313 Element set: 0331 Inclination: 071.9710 deg RA of node: 353.9463 deg Eccentricity: 0.0015389 Arg of perigee: 048.4481 deg Mean anomaly: 311.8017 deg Mean motion: 14.77254389 rev/day Decay rate: 3.51e-06 rev/day^2 Epoch rev: 05737 Checksum: 306
Satellite: FO-70 Catalog number: 37380 Epoch time: 12313.45076167 Element set: 0334 Inclination: 071.9750 deg RA of node: 354.3243 deg Eccentricity: 0.0015952 Arg of perigee: 045.3066 deg Mean anomaly: 314.9384 deg Mean motion: 14.77001025 rev/day Decay rate: 3.28e-06 rev/day^2 Epoch rev: 05728 Checksum: 287
Satellite: ALMASAT-1 Catalog number: 38078 Epoch time: 12312.45772154 Element set: 717 Inclination: 069.4744 deg RA of node: 351.5062 deg Eccentricity: 0.0733783 Arg of perigee: 068.5571 deg Mean anomaly: 299.2164 deg Mean motion: 14.14749542 rev/day Decay rate: 1.3273e-04 rev/day^2 Epoch rev: 3777 Checksum: 327
Satellite: XATCOBEO Catalog number: 38082 Epoch time: 12312.46275411 Element set: 679 Inclination: 069.4833 deg RA of node: 344.3664 deg Eccentricity: 0.0678588 Arg of perigee: 064.5751 deg Mean anomaly: 302.4013 deg Mean motion: 14.29527251 rev/day Decay rate: 3.5296e-04 rev/day^2 Epoch rev: 3796 Checksum: 323
/EX SB KEPS @ AMSAT $ORB12313.W Orbital Elements 12313.WEATHER
HR AMSAT ORBITAL ELEMENTS FOR WEATHER SATELLITES FROM WA5QGD FORT WORTH,TX November 8, 2012 BID: ORB12313.W TO ALL RADIO AMATEURS BT
Satellite: NOAA-10 Catalog number: 16969 Epoch time: 12312.35185062 Element set: 125 Inclination: 098.5699 deg RA of node: 338.7734 deg Eccentricity: 0.0012224 Arg of perigee: 171.3982 deg Mean anomaly: 188.7411 deg Mean motion: 14.27591305 rev/day Decay rate: 4.7e-07 rev/day^2 Epoch rev: 36029 Checksum: 311
Satellite: NOAA-11 Catalog number: 19531 Epoch time: 12312.19527712 Element set: 120 Inclination: 098.7258 deg RA of node: 034.3000 deg Eccentricity: 0.0011090 Arg of perigee: 171.7336 deg Mean anomaly: 188.4014 deg Mean motion: 14.14989265 rev/day Decay rate: 2.2e-07 rev/day^2 Epoch rev: 24473 Checksum: 265
